Home > Time Zones > World Clock > Weather > U.S.A. > Gary > Past weeks

Flag for U.S.A. Weather past 2 weeks in Gary, Indiana, U.S.A.

Now
55 °F

Fog.


Feels Like: 55 °F
Forecast: 59 / 78 °F
Wind: No wind

Location: Lansing Municipal Airport

Current Time: Jul 4, 2015 at 6:03:32 AM

Latest Report: Jul 4, 2015 at 5:15 AM


Visibility: 5 mi

Pressure: 29.97 "Hg

Humidity: 90%

Dew point: 52 °F

Location of GaryLocation

Historic Weather in Gary — Graph

°F

Gary temperature yesterday

Maximum temperature yesterday: 74 °F (at 1:35 PM)
Minimum temperature yesterday: 59 °F (at 1:35 AM)
Average temperature yesterday: 66 °F

Past Weeks' High & Low Weather Summary

 TemperatureHumidityPressure
High85 °F (Jun 21, 3:35 PM)94% (Jun 26, 7:35 AM)30.18 "Hg (Jun 26, 7:35 AM)
Low52 °F (Jun 28, 5:35 AM)34% (Jun 27, 3:55 PM)29.74 "Hg (Jun 20, 2:35 PM)
Average67 °F73%29.95 "Hg
* Reported Jun 19 4:15 AM — Jul 4 4:55 AM, Gary, Weather by CustomWeather, © 2015

Note: Actual official high and low records may vary slightly from our data, if they occured in-between our weather recording intervals... More about our weather records

Advertising

Gary weather history for previous 24 hours

 ConditionsComfort  
Time TempWeatherWind HumidityBarometerVisibility
4:55 AM
Sat, Jul 4
57 °FFog.No wind90%29.97 "Hg5 mi
4:35 AM57 °FClear.No wind89%29.97 "Hg7 mi
4:15 AM57 °FFog.No wind90%29.96 "Hg5 mi
3:55 AM57 °FFog.No wind91%29.96 "Hg4 mi
3:35 AM57 °FFog.No wind90%29.96 "Hg5 mi
3:15 AM57 °FFog.No wind91%29.95 "Hg5 mi
2:55 AM58 °FFog.No wind91%29.96 "Hg5 mi
2:35 AM58 °FFog.No wind90%29.96 "Hg4 mi
2:15 AM58 °FFog.No wind91%29.96 "Hg4 mi
1:55 AM57 °FFog.No wind89%29.96 "Hg5 mi
1:35 AM57 °FFog.No wind89%29.96 "Hg4 mi
1:15 AM58 °FFog.No wind89%29.96 "Hg5 mi
12:55 AM58 °FClear.No wind86%29.96 "Hg7 mi
12:15 AM60 °FClear.No wind81%29.96 "Hg7 mi
11:55 PM
Fri, Jul 3
61 °FClear.No wind78%29.96 "Hg7 mi
11:35 PM62 °FClear.No wind74%29.96 "Hg10 mi
11:15 PM60 °FClear.No wind82%29.95 "Hg7 mi
10:35 PM62 °FClear.No wind69%29.95 "Hg10 mi
10:15 PM62 °FClear.No wind69%29.95 "Hg10 mi
9:55 PM64 °FClear.3 mph68%29.94 "Hg10 mi
9:35 PM64 °FClear.No wind64%29.94 "Hg10 mi
9:15 PM65 °FClear.No wind64%29.94 "Hg10 mi
8:55 PM65 °FClear.No wind64%29.93 "Hg10 mi
8:35 PM65 °FClear.No wind63%29.93 "Hg10 mi
8:15 PM65 °FSunny.3 mph62%29.93 "Hg10 mi
7:55 PM67 °FSunny.5 mph57%29.93 "Hg10 mi
7:35 PM67 °FSunny.6 mph56%29.93 "Hg10 mi
7:15 PM68 °FSunny.6 mph55%29.93 "Hg10 mi
6:55 PM69 °FSunny.7 mph53%29.93 "Hg10 mi
6:35 PM70 °FSunny.6 mph52%29.93 "Hg10 mi
6:15 PM71 °FSunny.7 mph51%29.93 "Hg10 mi
5:55 PM72 °FSunny.7 mph50%29.93 "Hg10 mi
5:35 PM72 °FSunny.9 mph49%29.93 "Hg10 mi
5:15 PM72 °FSunny.8 mph48%29.93 "Hg10 mi
4:55 PM73 °FSunny.6 mph49%29.93 "Hg10 mi
4:35 PM73 °FSunny.6 mph46%29.93 "Hg10 mi
4:15 PM73 °FSunny.6 mph45%29.94 "Hg10 mi
3:55 PM74 °FSunny.8 mph47%29.94 "Hg10 mi
3:35 PM74 °FSunny.7 mph46%29.94 "Hg10 mi
3:15 PM74 °FSunny.10 mph45%29.94 "Hg10 mi
2:55 PM74 °FSunny.6 mph45%29.95 "Hg10 mi
2:35 PM74 °FSunny.7 mph44%29.95 "Hg10 mi
2:15 PM74 °FSunny.7 mph44%29.96 "Hg10 mi
1:55 PM74 °FSunny.7 mph44%29.96 "Hg10 mi
1:35 PM74 °FSunny.8 mph45%29.96 "Hg10 mi
1:15 PM74 °FSunny.7 mph45%29.96 "Hg10 mi
12:55 PM74 °FSunny.8 mph46%29.97 "Hg10 mi
12:35 PM74 °FSunny.7 mph45%29.97 "Hg10 mi
12:15 PM73 °FSunny.8 mph46%29.97 "Hg10 mi
11:55 AM73 °FScattered clouds.6 mph47%29.97 "Hg10 mi
11:35 AM72 °FSunny.5 mph49%29.97 "Hg10 mi
11:15 AM72 °FSunny.3 mph51%29.97 "Hg10 mi
10:55 AM71 °FSunny.5 mph51%29.97 "Hg10 mi
10:35 AM71 °FSunny.5 mph52%29.98 "Hg10 mi
10:15 AM70 °FSunny.5 mph55%29.97 "Hg10 mi
9:55 AM68 °FSunny.No wind57%29.98 "Hg10 mi
9:15 AM67 °FSunny.5 mph61%29.98 "Hg10 mi
8:55 AM65 °FSunny.3 mph67%29.98 "Hg10 mi
8:35 AM64 °FSunny.No wind70%29.98 "Hg10 mi
8:15 AM64 °FSunny.5 mph72%29.98 "Hg10 mi
7:55 AM63 °FSunny.3 mph73%29.98 "Hg10 mi
7:35 AM63 °FSunny.6 mph73%29.98 "Hg10 mi
7:15 AM62 °FSunny.3 mph77%29.98 "Hg10 mi
6:55 AM60 °FSunny.No wind80%29.97 "Hg10 mi
6:35 AM61 °FSunny.No wind78%29.97 "Hg10 mi
6:15 AM60 °FSunny.3 mph79%29.96 "Hg10 mi
Weather by CustomWeather, © 2015

See weather overviewHow to use our weather pages